User: anonymous   Login
Location: *
(52.2090°N, 4.1550°W)
Time: 22:07:14
(UTC+00:00)
Language:

USA 229 - Orbit

View from above orbital plane
View from above orbital plane
View from above satellite
View from above satellite

Ground track
Ground track

The orbit data is extracted from the following two-line orbital elements,

1 37386U 11014A   19243.82040954 0.00000000  00000-0  00000-0 0    08
2 37386  63.4378 126.1906 0134840 358.8679   1.1320 13.40787463    01
Epoch (UTC): 31 August 2019 19:41:23
Eccentricity: 0.0134840
inclination: 63.4378°
perigee height: 1005 km
apogee height: 1207 km
right ascension of ascending node: 126.1906°
argument of perigee: 358.8679°
revolutions per day: 13.40787463
mean anomaly at epoch: 1.1320°
orbit number at epoch: 0

The dashed part of the orbit path shows where the satellite is in the earth's shadow,  

DLR